www.pogodaiklimat.ru

Погода и климат >> Архив погоды >> Россия >> Якутия >> Джалинда


ПОГОДА в Джалинде

  • Прогноз погоды в Джалинде
  • Монитор погоды в Джалинде
  • Климат города

АРХИВ ПОГОДЫ в Джалинде

Время (UTC), дата Ветер
(напр.,м/с)
 
Видим.   Явления Облачность Т
(С)
Тd
(С)
f
(%)
Тe
(С)
Тes
(С)
Комфортность P
(гПа)
Po
(гПа)
Тmin
(С)
Tmax
(С)
R
(мм)
R24
(мм)
S
(см)
00 18.05 В 1 50 км 8/0
[Ci sp]
+2.8 -3.7 62 +2 +6 1011.1 1003.4 -3.8 16
03 18.05 Ю 3 50 км 8/0
[Ci sp]
+5.6 -3.1 53 +3 +9 1009.7 1002.1
06 18.05 Ю 3 50 км 8/0
[Ci sp]
+6.9 -3.4 48 +5 +11 1009.3 1001.7
09 18.05 Ю 1 50 км 9/0
[Cs]
+6.1 -4.7 46 +6 +10 1010.3 1002.7
12 18.05 В 3 50 км 8/0
[Cs]
+5.4 -4.2 50 +3 +3 1010.3 1002.7 -7.1
15 18.05 В 1 50 км 6/0
[Ci sp]
+1.4 -5.2 61 0 0 1011.1 1003.4
18 18.05 В 1 50 км 6/0
[Ci sp]
-3.3 -7.2 74 -5 -5 1011.8 1003.4
21 18.05 С 1 50 км ясно -5.2 -6.9 88 -8 -6 1012.2 1004.3
00 19.05 СЗ 1 50 км 3/0
[Ci fib]
-2.5 -5.1 82 -5 +1 1012.2 1004.3 -5.2 14
03 19.05 СВ 3 50 км 6/0
[Ci sp]
+1.0 -4.3 68 -3 +3 1011.6 1003.9
06 19.05 С 3 50 км 6/0
[Ci sp]
+1.7 -4.1 65 -2 +4 1011.6 1003.9
09 19.05 СВ 3 50 км 9/0
[Ci sp]
+0.1 -5.4 66 -4 -1 1011.8 1004.1
12 19.05 СВ 5 50 км 9/0
[Ci sp]
-2.1 -4.9 81 -9 -8 1011.7 1003.8 +1.9
15 19.05 С 5 50 км 10/0
[As op]
-4.2 -6.5 84 -11 -11 1012.8 1004.9
18 19.05 С 3 50 км 10/0
[As op]
-4.5 -4.4 100 -10 -10 1013.4 1005.4
21 19.05 С 3 50 км 10/10 600 м
[Sc]
-5.0 -5.6 96 -11 -11 1015.1 1007.1
00 20.05 С 3 50 км 10/10 600 м
[Sc]
-4.8 -5.4 96 -10 -10 1016.1 1008.1 -5.0 14
03 20.05 СВ 3 50 км 10/10 600 м
[Sc]
-4.2 -5.8 89 -10 -10 1016.1 1008.1
06 20.05 СЗ 3 50 км 10/10 600 м
[Sc]
-2.8 -5.1 84 -8 -8 1016.7 1008.7
09 20.05 З 1 50 км 8/8 600 м
[Sc]
+0.9 -3.0 75 -1 0 1017.5 1009.7
12 20.05 З 1 50 км 3/3 600 м
[Sc]
-0.3 -4.4 74 -2 -1 1018.1 1010.3 +1.1
15 20.05 штиль 0 50 км 3/3 600 м
[Sc]
-1.6 -5.3 76 -3 -3 1018.2 1010.2
18 20.05 штиль 0 50 км 4/4 600 м
[Sc]
-6.8 +10.2 100 -8 -8 1018.3 1018.0
21 20.05 штиль 0 50 км 9/0
[Cs]
-4.7 -5.6 93 -6 -5 1017.4 1009.4
00 21.05 Ю 3 50 км 10/0
[Cs]
+0.8 -3.4 73 -3 -0 1015.1 1007.3 -6.8 12
03 21.05 Ю 5 50 км 10/0
[Cs]
+4.7 -2.6 59 0 +4 1012.3 1004.7
06 21.05 Ю 5 50 км 10/0
[As op]
+5.5 -0.9 63 +1 +2 1011.7 1004.1
09 21.05 Ю 3 50 км 10/0
[Cs]
+7.4 -1.3 54 +5 +8 1009.7 1002.1
12 21.05 штиль 0 50 км 9/0
[Cs]
+6.9 0.0 61 +6 +8 1008.7 1001.1 +7.6
15 21.05 штиль 0 50 км 8/0
[Ci sp]
+5.6 -2.4 56 +5 +5 1007.5 999.9
18 21.05 штиль 0 50 км 8/0
[Ci sp]
+1.9 -3.1 69 +1 +1 1006.8 999.1
21 21.05 штиль 0 50 км 10/0
[As op]
+3.4 -1.0 73 +3 +3 1005.3 997.7
00 22.05 штиль 0 50 км 9/0
[Ac trans Ci sp]
+6.9 -0.3 60 +6 +10 1003.1 995.5 +1.9 9
03 22.05 Ю 1 50 км 10/0
[Ac trans Cs]
+8.9 -1.5 48 +9 +15 1002.1 994.7
06 22.05 З 1 50 км 10/0
[Cs]
+9.5 0.0 51 +9 +18 1001.6 994.2
09 22.05 штиль 0 50 км 10/0
[As op]
+10.5 +0.2 49 +10 +11 1001.6 994.2
12 22.05 В 1 50 км 8/0
[Ac As Ci sp]
+10.2 +0.1 49 +10 +11 1002.1 994.7 +10.7
15 22.05 СЗ 1 50 км 3/0
[Ci sp]
+6.0 -0.9 61 +5 +5 1002.7 995.1
18 22.05 штиль 0 50 км 3/0
[Ci sp]
+2.3 -1.0 79 +1 +1 1002.8 995.1
21 22.05 штиль 0 50 км 8/0
[Ci sp]
-2.6 -5.6 80 -4 -2 1003.6 995.7
00 23.05 штиль 0 50 км 10/0
[Cs]
+6.7 +0.6 65 +6 +11 1003.4 995.8 -2.6 5
03 23.05 В 5 50 км 10/0
[Cs]
+11.3 -1.0 42 +9 +13 1003.3 996.3
06 23.05 В 3 50 км 10/0
[Cs]
+11.9 -1.1 40 +11 +17 1002.8 995.3
09 23.05 ЮВ 3 50 км 10/0
[Cs]
+11.0 -1.1 43 +10 +13 1001.6 994.2
12 23.05 штиль 0 20 км слабый дождь 10/0
[As op]
+8.7 -0.8 51 +8 +9 1001.7 994.3 +12.2 0.0
15 23.05 штиль 0 20 км 10/0
[Ac As]
+7.3 +0.5 62 +7 +7 1001.3 993.8
18 23.05 штиль 0 50 км {дождь} 8/8 600 м
[Sc]
+5.1 -1.7 61 +5 +5 1000.9 993.4
21 23.05 штиль 0 50 км 4/0
[Ci sp]
+6.2 +1.2 70 +6 +7 1001.3 993.8
00 24.05 ЮВ 1 50 км 6/0
[Ci sp]
+10.4 +1.9 56 +10 +16 1001.3 993.9 +5.1 0.0 1
03 24.05 штиль 0 50 км 4/0
[Ci sp]
+16.8 +4.0 43 +17 +28 1001.0 993.7
06 24.05 ЮВ 1 50 км 9/0
[Cs]
+16.8 +4.0 43 +18 +26 999.9 992.6
09 24.05 ЮВ 1 50 км 10/6 600 м
[Sc Cs]
+16.9 +4.2 43 +18 +20 999.1 991.8
12 24.05 Ю 1 50 км 9/9 600 м
[Cb cap]
+15.9 +3.8 44 +17 +17 998.8 991.5 +17.2
15 24.05 штиль 0 50 км 9/9 600 м
[Sc]
+11.2 +2.7 56 +11 +11 999.7 992.3
18 24.05 штиль 0 50 км 8/8 600 м
[Cb cap]
+7.5 +4.3 80 +7 +7 999.4 991.9
21 24.05 штиль 0 50 км 3/3 600 м
[Sc]
+7.7 +4.3 79 +7 +8 1000.1 992.6

 

Местоположение метеостанции Джалинда (Якутия, Россия): широта 70.13 долгота 113.90 высота над уровнем моря 62 м.

В архиве по умолчанию представлена погода в Джалинде за последнюю неделю. Архивные данные за месяц целиком и за предыдущие месяцы, начиная с января 2011 года, Вы можете получить, выбрав интересующий диапазон дат из раскрывающегося списка и нажав кнопку "Ввод!".


*Определитесь, кто Вы:
робот инопланетянин человек

Внимание! Время в таблицах - всемирное. Для получения местного времени необходимо прибавить поправку, которая в Джалинде равна 9 ч.

Смотрите также архив погоды в соседних городах и на ближайших метеорологических станциях:

Погода в Оленеке (Якутия, Россия) (191 км)
Погода в Саскылахе (Якутия, Россия) (205 км)
Погода в Сухане (Якутия, Россия) (241 км)
Погода в Анабаре (Якутия, Россия) (344 км)
Погода в Усть-Оленеке (Якутия, Россия) (380 км)
Погода в Полярном (Якутия, Россия) (383 км)
Погода в Ярольине (Якутия, Россия) (399 км)
Погода в Тюмяти (Якутия, Россия) (400 км)
Погода в Джарджане (Якутия, Россия) (424 км)
Погода в Шелагонцах (Якутия, Россия) (432 км)

Пояснения к столбцам:

Ветер - указаны скорость ветра в м/с - средняя за 10 мин, порывы в срок и между сроками (в фигурных скобках) и направление, откуда дует ветер: С - северный, СВ - северо-восточный, В - восточный, ЮВ - юго-восточный, Ю - южный, ЮЗ - юго-западный, З - западный, СЗ - северо-западный.
Видимость - горизонтальная дальность видимости в метрах или километрах. При видимости от 1 до 10 км при отсутствии осадков обычно наблюдается дымка, при ухудшении видимости до 1 км и менее - туман. В сухую погоду видимость может ухудшаться дымом, пылью или мглою.
Явления - указаны атмосферные явления, наблюдавшиеся в срок или в последний час перед сроком; фигурными скобками обозначены явления, наблюдавшиеся между сроками (за 1-3 часа до срока); квадратными скобками обозначены град или гололедные отложения с указанием их диаметра в мм.
Облачность - указаны через наклонную черту общая и нижняя облачность в баллах и высота нижней границы облаков в метрах; квадратными скобками обозначены формы облаков: Ci - перистые, Cs - перисто-слоистые, Cc - перисто-кучевые, Ac - высококучевые, As - высокослоистые, Sc - слоисто-кучевые, Ns - слоисто-дождевые, Cu - кучевые, Cb - кучево-дождевые. Подробнее классификацию облаков см. в Атласе облаков (PDF).
T - Температура воздуха - температура, измеренная на высоте 2 м над землей.
Td - Температура точки росы - температура, при понижении до которой содержащийся в воздухе водяной пар достигнет насыщения.
f - Относительная влажность воздуха - влажноcть воздуха, измеренная на высоте 2 м над землей.
Te - Эффективная температура - температура, которую ощущает одетый по сезону человек в тени. Характеристика душности погоды. При расчете учитывается влияние влажности воздуха и скорости ветра на теплоощущения человека.
Tes - Эффективная температура на солнце - температура, которую ощущает человек, с поправкой на солнечный нагрев. Характеристика знойности погоды. Зависит от высоты солнца над горизонтом, облачности и скорости ветра. Ночью, в пасмурную погоду, а также при ветре 12 м/с и более поправка равна нулю.
P - Атмосферное давление - приведенное к уровню моря атмосферное давление.
Po - Атмосферное давление - измеренное на уровне метеостанции атмосферное давление.
Tmin - Минимальная температура - минимум температуры воздуха на высоте 2 м над землей.
Tmax - Максимальная температура - максимум температуры воздуха на высоте 2 м над землей.
R - Количество осадков - Количество выпавших осадков за период времени, мм. При наведении курсора мыши на число - период времени, за который выпало указанное количество осадков.
R24 - Количество осадков - Количество выпавших осадков за 24 часа, мм.
S - Снежный покров - Высота снежного покрова, см. При наведении курсора мыши на число - состояние снежного покрова и степень покрытия местности в баллах.